THAICOM 8 (41552 NORAD) Tracking and Keplerian Element Data

This shows tracking and keplerian element data for the satellite.

Feedback or suggestion? Click here.




ElementValue
Catalog41552
NameTHAICOM 8
Epoch Orbit2308
Epoch Day269.87745654
Epoch Year2022
RAAN63.6252
Inclination0.0814
Eccentricity0.0001327
Argument of Perigee42.5817
Mean Anonmoly293.9015
Mean Motion1.00271612
Decay Rate-1.19E-06
L11 41552U 16031A 22269.87745654 -.00000119 00000+0 00000+0 0 9995
L22 41552 0.0814 63.6252 0001327 42.5817 293.9015 1.00271612 23088

Live tracking and technical data element details for THAICOM 8 (NORAD 41552). THAICOM 8 can be tracked NOW for your location showing map with azimuth and elevation plus other details from your city location.

Track the satellite on the map from your city or location and see movement details for azimuth, elevation, latitude, longitude, range, height, and movement on the map or in text.







IsCatalogInMostPopularTable: catalog: 41552, numindb: 641
Update: records affected: 1



GetName: 41552 THAICOM 8

Hit Count: updated at: Fri, 30 Sep 2022 04:26:01 GMT